Location: Newark
(33.4133°N, 82.3847°W)
Time: 11:16:36
(UTC+00:00)

Hubble Space Telescope - Pass Details

Date: 31 January 2020
Orbit: 536 x 540 km, 28.5° (Epoch: 23 February)

Event Time Altitude Azimuth Distance (km) Brightness Sun altitude
Exits shadow 11:45:45 - 244° (WSW) 2,223 3.5 -8.9°
Reaches altitude 10° 11:46:58 10° 239° (WSW) 1,776 3.0 -8.7°
Maximum altitude 11:50:45 36° 172° (S) 854 2.0 -7.9°
Drops below altitude 10° 11:54:32 10° 105° (ESE) 1,779 5.2 -7.2°
Sets 11:56:55 0° 96° (E) 2,670 6.5 -6.7°
